CYUYCYPA

Guest
Details From CYUY - Rouyn Noranda
To CYPA - Prince Albert (glass Field)
Flight Number -
Tags Generated
Created
Modified
Stats Distance 1,057 nm / 1,957 km
Max Altitude 0 ft / 0 m
Waypoints 3
Social Downloads 0
Likes 0
Share VATSIM

Download

Looking for another format? Having issues loading an existing format? Contact us
Advertisement - Login to hide

Notes

Generated

Route

CYUY YPA CYPA

ID Type Via Altitude Latitude Longitude Leg Dist Tot Dist Heading (true) Name
O CYUY APT - 0 ft / 0 m 48.20105˚ -78.84886˚ - 0 nm - -
YPA VOR - 0 ft / 0 m 53.21667˚ -105.66667˚ 1056 nm 1056 nm 297° / 276° PRINCE ALBERT VOR-DME
O CYPA APT - 0 ft / 0 m 53.21772˚ -105.67373˚ 0 nm 1056 nm 284° / 284° Prince Albert (Glass Field)

Altitude Profile

Advertisement - Login to hide

Weather


0- 5 10 15 20 25 30 35+ Temperature / ° C

Clouds and Precipitation
Forecast for 2018-05-21 12:00 UTC. Updated 3 hours ago

Ground ~20,000 ft ~40,000 ft Winds

CYUY

Details ICAO CYUY (YUY)
Name ROUYN NORANDA
Region Canada
Timezone America/Montreal (UTC-4.0)
Stats Elevation 988 ft / 301 m (AMSL)
Location 48.205801° -78.835263°
Runways 1
Magnetic Variation 12.188° W

METAR

CYUY 211300Z 33009KT 15SM FEW250 14/02 A3013 RMK CI1 CI TR SLP210

Decode

TAF

TAF CYUY 211138Z 2112/2124 28007KT P6SM FEW100 BECMG 2113/2115 28010KT FM211700 30010G20KT P6SM FEW080 BECMG 2122/2124 VRB03KT RMK NXT FCST BY 211800Z

Decode

Departure Runways

ID Width Length Bearing (true) Bearing (mag) Surface Threshold Offset Overrun Length
08 150 ft / 46 m 7,470 ft / 2,277 m 62.31° 74.50° Asphalt 0 ft / 0 m 0 ft / 0 m
26 150 ft / 46 m 7,470 ft / 2,277 m 242.33° 254.52° Asphalt 0 ft / 0 m 0 ft / 0 m

CYPA

Details ICAO CYPA (YPA)
Name Prince Albert (Glass Field)
Region Canada
Timezone America/Regina (UTC-6.0)
Stats Elevation 1,405 ft / 428 m (AMSL)
Location 53.216123° -105.672921°
Runways 2
Magnetic Variation 9.691° E

METAR

CYPA 211300Z 16007KT 15SM FEW090 FEW250 16/04 A2980 RMK ACC1CI1 ACC TR SLP097 DENSITY ALT 2000FT

Decode

TAF

TAF CYPA 211242Z 2113/2201 07005KT P6SM SCT090 SCT250 FM211800 18010KT P6SM BKN080 TEMPO 2118/2201 SCT080 PROB30 2121/2123 VRB20G30KT 5SM TSRA BKN080CB RMK NXT FCST BY 211900Z

Decode

Destination Runways

ID Width Length Bearing (true) Bearing (mag) Surface Threshold Offset Overrun Length
08 151 ft / 46 m 5,105 ft / 1,556 m 89.99° 80.30° Asphalt 0 ft / 0 m 0 ft / 0 m
16 98 ft / 30 m 2,570 ft / 783 m 170.09° 160.40° Grass 0 ft / 0 m 0 ft / 0 m
26 151 ft / 46 m 5,105 ft / 1,556 m 270.01° 260.32° Asphalt 0 ft / 0 m 0 ft / 0 m
34 98 ft / 30 m 2,570 ft / 783 m 350.09° 340.40° Grass 0 ft / 0 m 0 ft / 0 m

Approach Navaids

Runway Type Ident Frequency Range Bearing (true) Bearing (mag) Slope Elevation
08 Localiser IPA 110.30 MHz 18 nm / 33 km 90.00° 80.31° - 1,388 ft / 423 m (AMSL)
08 Glidescope IPA 110.30 MHz 10 nm / 19 km 90.00° 80.31° 3.00° 1,391 ft / 424 m (AMSL)